User: anonymous
Location: Sperry Observatory
(40.6664°N, 74.3236°W)
Time: 05:04:57
(UTC-04:00)
Language:

UOSAT-12 - Orbit

View from above orbital plane
View from above orbital plane
View from above satellite
View from above satellite

Ground track
Ground track

The orbit data is extracted from the following two-line orbital elements,

1 25693U 99021A   14210.19164881  .00000174  00000-0  41799-4 0  5488
2 25693 064.5570 132.9449 0048714 283.0899 182.8296 14.79991194824137
Epoch (UTC): 29 July 2014 04:35:58
Eccentricity: 0.0048714
inclination: 64.5570°
perigee height: 595 km
apogee height: 663 km
right ascension of ascending node: 132.9449°
argument of perigee: 283.0899°
revolutions per day: 14.79991194
mean anomaly at epoch: 182.8296°
orbit number at epoch: 82413

The dashed part of the orbit path shows where the satellite is in the earth's shadow,  

DLR